GFSCGP_prec_cloud_003.txt.gz
Cloud_Cover
77 100 33 1 65 2 54 78 5 5 5 5 82 100 100 100 100 100 93 7 5 5 15 5 5 3 0 0 0 0 0 22 100 100 100 99 99 93 100 100 100 100 100 91
5 12 0 0 0 0 3 1 0 0 2 4 2 92 100 84 68 100 8 2 0 4 5 5 0 28 0 0 0 0 0 50 100 100 87 79 86 96 100 100 100 100 100 100
0 0 0 0 0 0 0 0 0 0 0 0 0 0 0 0 21 99 8 2 0 0 4 5 20 15 0 0 0 0 0 66 100 100 100 97 70 99 70 99 100 100 100 100
0 0 0 0 0 0 0 0 0 0 0 0 0 0 0 0 0 2 2 1 0 0 5 0 94 39 0 0 0 0 0 97 100 100 98 100 100 100 100 96 100 100 100 99
0 0 0 0 0 0 0 0 0 0 0 0 0 0 0 0 0 4 3 0 2 5 4 23 100 0 0 0 0 0 0 6 100 100 75 100 73 100 100 92 96 100 100 97
0 0 0 0 0 0 0 0 0 0 0 0 0 0 0 0 0 3 0 0 3 0 22 100 37 0 0 0 0 0 0 5 98 97 100 100 98 54 97 63 99 100 100 100
3 1 0 0 0 0 0 0 0 0 0 0 0 0 0 0 0 0 0 0 0 5 88 89 5 1 0 0 0 0 0 0 94 78 95 100 98 100 99 100 100 100 100 100
5 5 5 0 0 0 0 0 0 0 2 0 0 0 0 0 0 2 5 0 1 37 100 13 2 0 0 0 4 0 0 2 60 17 100 98 32 93 27 100 100 100 100 100
99 76 64 0 0 1 5 5 0 0 0 0 0 0 0 0 0 5 5 35 28 86 46 6 0 0 0 0 5 1 0 0 76 5 100 53 5 50 19 97 36 100 100 100
100 57 100 5 5 4 3 5 2 1 0 0 0 0 0 1 3 54 12 67 100 12 36 5 0 0 0 0 4 2 0 0 16 35 100 99 64 100 24 63 100 100 100 100
90 28 94 26 5 5 5 5 1 1 0 0 0 0 0 5 5 5 4 5 94 5 30 5 0 0 0 0 4 0 0 0 2 100 95 100 100 100 81 36 71 100 100 100
100 100 35 5 5 5 5 45 2 3 0 5 0 0 0 0 0 4 7 29 98 5 75 60 0 0 0 0 0 1 0 0 0 5 46 98 100 100 100 98 67 100 61 100
100 95 87 5 60 68 100 18 5 0 5 4 0 0 0 1 2 5 5 22 77 78 100 90 0 0 0 0 0 0 2 0 0 1 5 97 100 100 100 85 100 100 88 100
100 96 57 59 64 54 60 5 3 5 5 0 0 0 0 4 0 5 5 6 28 100 53 10 0 0 0 0 0 0 0 0 0 3 8 86 100 100 100 100 64 100 60 94
46 8 32 26 90 97 5 5 5 5 5 5 0 0 0 3 2 2 5 71 84 11 0 0 0 0 0 0 0 0 0 0 1 7 63 77 96 88 92 42 100 100 98 36
62 5 5 50 13 15 5 6 79 27 45 5 0 0 0 0 5 2 26 39 5 4 4 5 0 0 0 0 0 0 0 0 43 11 5 81 100 100 100 25 17 15 99 19
89 32 23 46 5 5 43 96 69 52 78 18 0 0 0 0 5 0 6 8 7 5 5 5 3 0 0 0 0 0 0 0 4 98 21 5 50 89 100 98 100 100 29 5
72 67 56 93 74 7 45 40 82 7 61 98 3 0 0 2 16 7 5 16 5 3 5 4 1 3 0 0 0 0 0 0 0 12 98 22 5 9 58 87 85 100 97 98
99 36 25 11 9 8 5 66 41 34 100 75 45 4 0 5 8 81 5 59 14 5 5 4 5 4 58 0 0 0 0 0 0 0 5 69 10 4 5 6 5 5 5 8
100 100 37 5 5 2 6 99 100 32 43 100 60 0 0 5 36 100 11 43 29 5 5 6 6 19 7 4 0 0 0 0 0 0 0 0 11 68 54 5 43 68 63 91
59 68 16 5 1 0 4 31 100 14 100 87 5 0 0 3 97 34 5 20 25 6 6 45 58 88 32 81 0 0 0 0 0 0 0 0 0 0 4 5 5 5 5 8
92 62 14 5 1 0 4 5 39 100 100 100 5 0 0 21 22 5 7 91 39 100 97 29 17 100 93 18 3 0 0 0 0 0 0 0 0 0 0 0 0 0 0 0
94 16 1 2 0 5 4 6 87 100 100 94 46 52 0 48 90 22 18 100 93 60 93 44 12 96 46 5 2 0 0 0 0 0 0 0 0 0 0 0 0 0 0 0
35 54 2 4 0 3 5 5 5 94 100 100 6 11 3 3 90 79 17 15 99 45 10 65 11 97 95 7 0 5 0 0 0 0 0 0 0 0 0 0 0 0 0 0
43 99 6 0 3 5 5 5 52 55 99 100 90 27 5 0 5 94 97 7 88 5 5 10 21 13 5 5 3 5 4 0 0 0 0 0 0 0 0 0 0 0 0 0
100 64 27 5 70 60 96 100 98 53 94 100 100 96 5 0 5 5 79 13 92 5 5 74 14 5 5 31 63 13 4 4 0 5 4 0 0 0 0 0 0 0 0 0

GFSCGP_prec_cloud_006.txt.gz
Cloud_Cover
100 100 100 100 100 100 34 5 5 5 4 0 5 1 5 92 4 18 74 5 9 0 4 5 0 0 0 4 4 0 0 0 100 28 29 59 82 100 84 97 100 100 95 89
89 100 92 100 98 11 0 0 0 5 2 0 0 0 0 1 4 62 1 0 0 0 0 0 0 0 0 5 0 0 0 47 100 46 66 100 75 96 100 98 99 98 100 98
100 100 100 55 3 0 0 0 1 5 4 0 0 0 0 0 0 0 0 0 0 0 0 0 0 0 5 1 0 0 0 79 29 98 78 98 100 100 100 100 98 100 100 100
1 0 0 0 0 0 0 0 0 0 0 0 0 0 0 0 0 0 0 0 0 0 0 0 0 66 12 0 0 0 0 99 100 100 76 82 100 100 89 94 59 100 100 100
42 0 0 0 0 0 0 0 0 0 0 0 0 0 0 0 0 0 0 0 0 0 0 3 8 99 5 0 0 0 0 100 100 27 100 84 95 100 98 100 97 100 100 100
0 0 0 0 0 0 0 0 0 0 0 1 0 0 0 0 0 0 0 0 0 0 0 3 90 64 4 0 0 0 0 46 98 33 100 50 96 98 91 100 100 99 100 100
0 0 0 0 0 0 0 0 0 3 5 3 0 0 0 0 0 0 0 0 0 0 0 5 92 8 0 0 0 4 0 8 97 9 100 8 28 100 100 100 96 100 89 99
0 0 0 0 0 0 0 1 0 3 5 5 4 0 0 0 0 0 0 0 0 0 2 33 8 0 0 0 1 4 0 3 100 11 56 34 30 97 100 100 100 100 100 92
0 0 2 0 0 0 0 5 4 56 5 5 2 4 0 0 0 0 5 0 0 5 5 5 5 0 0 0 11 1 0 2 81 80 20 5 5 8 75 100 100 100 100 95
15 25 83 5 0 0 2 2 20 90 6 24 7 3 1 66 5 5 5 5 5 12 5 5 3 0 0 0 10 1 0 0 37 91 16 1 11 12 40 95 100 100 100 100
12 96 95 5 4 36 5 5 14 59 5 5 47 5 2 0 2 5 5 0 2 5 4 5 5 0 0 0 0 1 0 0 8 100 56 3 6 5 99 100 100 100 100 100
72 99 38 97 4 26 62 98 100 7 31 5 4 2 6 0 0 2 80 8 47 65 2 14 5 0 0 0 0 1 0 0 1 12 100 97 24 5 28 100 100 100 100 100
69 3 28 84 7 67 100 99 5 5 21 25 20 2 0 0 0 0 0 0 4 5 5 93 0 0 0 0 0 0 0 0 0 21 97 99 100 6 13 95 100 100 100 100
74 6 5 34 99 68 9 25 7 29 77 22 5 4 6 0 0 0 0 2 0 4 27 6 0 0 0 0 0 0 0 0 0 0 19 14 100 6 38 51 33 68 100 100
40 6 5 44 22 10 54 72 5 94 91 86 16 5 1 5 4 2 0 0 4 5 5 3 0 0 0 0 0 0 0 2 0 0 4 5 100 16 79 10 8 76 100 100
5 14 8 5 8 5 5 35 92 100 100 100 13 4 5 5 5 0 0 2 4 5 5 2 0 0 0 0 0 0 0 0 6 5 0 5 79 42 96 21 6 100 95 69
5 82 13 12 10 37 41 100 47 79 100 100 14 4 3 4 0 0 0 0 5 4 2 4 4 0 0 0 0 0 0 0 13 5 4 5 5 27 5 5 73 97 100 14
98 86 94 77 49 42 97 15 37 100 96 98 90 2 0 3 0 0 0 0 0 4 5 5 5 4 0 0 0 0 0 0 0 5 0 4 5 80 56 76 20 100 76 48
100 100 100 100 24 43 16 41 100 97 100 93 6 5 2 5 0 0 3 0 0 3 2 0 4 5 37 34 0 0 0 0 0 1 5 4 0 4 7 97 85 25 100 99
100 100 96 91 5 7 99 99 100 100 93 79 100 9 5 5 0 0 0 0 0 2 5 4 0 58 23 19 9 0 0 0 0 0 0 5 4 3 5 5 5 5 4 5
27 96 38 5 3 10 5 42 100 64 100 100 100 13 5 5 0 13 0 0 3 5 28 69 77 5 37 29 11 0 0 0 0 0 0 0 28 14 5 3 0 3 5 5
5 8 5 5 5 13 5 5 99 100 100 100 52 6 5 4 0 0 0 0 5 5 5 27 5 5 5 18 16 5 1 0 0 0 0 0 0 3 5 5 5 2 0 0
100 7 13 4 5 5 5 5 100 100 100 100 35 5 5 3 0 0 0 0 5 5 10 99 68 5 6 5 5 5 5 0 0 0 0 0 0 0 0 0 0 0 0 0
26 32 24 5 6 6 4 0 6 100 100 100 64 5 5 0 5 5 0 0 3 5 68 30 44 9 100 7 18 5 5 0 1 2 0 0 0 0 0 0 0 0 0 0
93 5 5 1 3 17 3 0 5 91 100 100 99 19 5 1 5 5 3 1 5 5 42 78 83 46 5 95 37 5 5 0 5 5 2 0 0 0 0 0 0 0 0 0
56 78 5 0 4 1 12 1 5 5 86 100 85 4 1 86 33 5 5 1 4 56 26 11 5 5 20 12 4 5 5 0 1 14 5 2 0 0 0 0 0 0 0 0

GFSCGP_prec_cloud_009.txt.gz
Cloud_Cover
100 100 100 100 100 100 98 100 100 100 88 30 99 42 52 97 19 2 0 0 0 0 0 0 0 0 0 0 0 0 0 0 32 96 74 86 100 80 100 80 39 50 36 53
100 100 100 30 69 100 100 100 89 5 5 44 61 5 0 1 0 0 0 0 0 0 0 0 0 0 0 1 1 0 0 0 93 70 100 100 64 100 100 100 75 100 85 53
100 100 100 7 100 93 34 32 5 5 5 72 8 0 4 5 0 0 0 0 0 0 0 0 0 0 0 44 0 0 0 0 46 29 60 100 100 82 100 100 71 100 95 100
99 62 43 65 77 30 58 5 4 1 5 19 6 0 5 2 2 0 0 0 0 0 0 0 0 0 2 4 0 0 0 2 100 26 93 100 100 100 100 100 100 100 82 54
95 56 7 0 1 0 0 0 5 5 5 4 5 3 4 5 54 4 0 0 0 0 0 0 0 0 5 1 0 0 0 2 100 50 22 57 63 19 99 100 100 100 100 81
4 0 0 0 1 0 0 3 0 5 5 3 5 5 5 10 64 0 0 4 0 0 0 0 2 55 7 0 0 0 0 18 98 58 27 84 99 68 100 100 100 90 100 100
2 0 0 0 0 0 0 1 0 5 7 33 35 5 5 0 3 0 0 5 0 0 0 0 5 1 0 0 0 0 0 0 98 36 45 49 100 57 100 100 100 76 86 100
0 0 0 0 0 0 0 2 0 19 96 98 72 5 36 3 4 0 0 0 0 0 0 12 2 0 0 0 0 0 0 0 92 11 5 31 98 99 100 100 100 100 83 100
0 0 0 0 0 1 5 1 2 5 1 64 88 84 16 1 3 11 3 4 0 0 4 4 0 0 0 0 0 0 0 0 32 38 5 15 73 100 100 100 100 100 82 99
0 0 0 0 0 5 1 2 2 4 5 81 100 96 100 0 50 19 1 4 0 0 3 0 0 5 0 0 0 0 0 0 3 5 2 8 29 55 100 100 100 100 100 100
0 0 0 0 3 12 5 6 5 5 6 86 100 97 96 26 7 25 76 4 0 0 0 2 3 1 0 0 0 0 0 0 0 5 1 5 25 100 100 73 93 100 100 100
0 0 0 1 1 0 8 17 93 93 23 5 76 100 93 0 5 6 100 0 0 3 3 0 5 0 0 0 0 0 0 0 0 5 5 5 52 100 100 100 100 100 100 100
9 0 0 7 6 97 45 100 100 90 73 87 60 15 14 5 0 5 100 0 0 0 0 7 3 0 0 0 0 0 0 0 0 17 4 32 88 100 100 100 100 100 93 100
98 0 0 1 73 63 100 99 97 70 100 5 53 40 16 5 23 68 90 2 0 0 2 2 0 0 0 0 0 0 0 0 0 0 98 97 12 91 62 62 100 100 100 100
8 2 0 4 4 1 5 6 19 36 90 6 100 96 6 70 97 12 69 0 0 0 6 5 0 0 0 0 0 0 0 0 0 0 31 65 100 59 60 36 42 100 100 100
5 0 0 0 5 4 5 5 5 74 100 80 100 100 5 24 61 78 44 0 0 0 4 5 0 0 0 0 0 0 0 0 5 0 5 5 100 5 43 16 29 100 100 100
5 5 0 0 5 5 3 18 95 51 97 100 100 100 5 5 9 41 5 4 0 0 0 5 0 0 0 0 0 0 0 0 3 2 4 5 100 100 12 6 5 19 85 85
5 5 5 5 5 52 89 60 12 26 85 63 97 100 13 46 5 5 5 3 0 0 0 0 0 1 0 0 0 0 0 0 0 63 4 5 5 58 98 5 5 5 100 39
95 63 6 5 1 4 21 0 6 100 100 100 100 100 8 19 5 5 7 22 1 0 0 2 3 0 5 9 3 0 0 0 0 2 46 5 5 5 92 8 5 5 85 66
90 100 100 22 88 24 62 6 6 75 5 90 43 90 44 5 5 8 5 12 1 0 0 0 0 0 5 5 5 3 0 0 0 0 1 5 4 2 5 5 83 22 5 8
5 37 82 100 100 17 92 64 66 4 98 87 97 100 5 19 28 87 8 3 1 0 0 4 0 0 0 4 8 18 0 0 0 0 0 0 1 27 4 5 1 0 0 3
4 3 91 100 100 82 94 98 49 98 100 100 100 100 5 40 5 5 3 5 2 0 0 0 0 0 0 4 5 48 42 8 0 0 0 0 0 0 10 22 22 2 0 0
71 42 90 100 97 100 100 99 84 100 100 100 100 98 22 5 5 6 1 0 0 0 0 0 0 0 5 0 5 44 99 5 0 0 0 0 0 0 0 0 0 1 1 0
100 100 100 100 100 100 94 99 66 100 98 100 96 39 39 27 5 5 1 0 0 0 0 0 0 14 84 0 0 5 100 69 2 0 0 0 0 0 0 0 0 0 0 0
100 100 100 100 100 100 84 66 95 100 100 99 100 90 56 15 1 5 3 0 0 0 0 0 0 2 26 1 0 12 22 100 5 2 0 0 0 0 0 0 0 0 0 0
100 100 100 100 100 78 100 98 10 96 100 100 61 66 40 49 7 5 5 0 0 0 0 0 0 1 5 6 4 5 28 5 5 5 5 2 0 0 0 0 0 0 0 0

GFSCGP_prec_cloud_012.txt.gz
Cloud_Cover
100 100 99 100 100 100 100 100 100 100 100 100 92 100 100 98 5 2 27 98 22 5 0 0 0 0 0 0 0 5 0 0 0 0 88 42 41 9 5 18 10 100 46 24
84 100 100 99 100 100 100 100 100 100 100 62 44 5 7 0 0 0 1 4 1 0 0 0 0 0 0 0 3 0 0 0 0 15 100 5 82 100 100 75 97 69 98 18
100 100 84 8 93 100 100 100 100 100 74 91 39 18 0 46 86 38 100 0 0 0 0 0 0 0 0 0 0 0 0 0 0 1 60 72 100 100 100 97 99 100 91 61
100 100 100 100 100 100 100 100 93 94 53 53 89 13 2 9 2 18 42 0 0 0 0 0 0 0 0 3 0 0 0 0 16 0 5 5 89 58 100 100 96 94 96 56
100 100 100 100 100 100 100 45 92 100 6 29 5 1 0 2 6 100 40 4 0 0 0 0 0 0 0 0 0 0 0 0 6 79 14 34 79 99 95 100 88 64 100 100
59 60 22 92 34 58 15 24 52 26 5 3 2 4 0 15 99 17 7 3 1 0 0 0 0 0 1 0 0 0 0 0 32 83 0 85 98 100 100 99 100 100 87 100
99 75 33 27 33 79 7 67 58 45 5 0 0 3 0 13 26 3 0 23 5 0 0 0 0 0 0 0 0 0 0 0 35 5 12 99 5 100 100 100 100 61 89 100
2 5 5 8 2 3 9 19 3 7 3 3 99 92 92 6 0 0 0 0 0 0 0 5 0 0 0 0 0 0 0 0 5 9 94 10 98 100 100 100 100 61 100 98
5 5 0 0 0 1 6 22 0 0 4 98 73 75 96 83 0 0 5 0 0 0 0 0 0 0 0 0 0 0 0 0 28 0 5 5 71 100 100 100 100 99 98 93
0 0 0 0 1 4 9 3 0 0 0 3 6 22 68 39 40 4 4 1 1 0 0 0 0 4 0 0 0 0 0 0 3 1 6 14 100 100 100 100 100 100 73 99
3 0 0 0 0 3 1 2 3 0 2 4 5 8 87 93 84 5 2 1 1 0 3 0 0 0 0 0 0 0 0 0 0 5 4 7 77 100 100 100 76 100 93 73
0 0 0 0 0 0 0 0 1 3 5 5 33 100 100 63 62 2 0 23 14 0 0 0 2 0 0 0 0 0 0 0 0 4 3 20 100 100 100 100 98 100 98 100
8 0 0 0 63 52 0 0 0 57 64 8 95 31 5 6 9 0 0 3 2 0 0 0 0 0 0 0 0 0 0 0 0 0 5 54 100 100 100 100 100 67 100 92
26 1 0 0 2 91 62 8 91 100 40 18 92 44 100 99 43 0 1 0 0 0 0 0 0 0 0 0 0 0 0 0 0 0 0 3 100 100 98 100 100 100 76 97
5 3 0 0 0 98 4 4 94 69 33 4 96 33 93 70 60 11 5 4 0 0 0 0 0 0 0 0 0 0 0 0 0 0 0 3 73 84 45 100 100 100 100 100
98 5 0 0 0 73 100 2 0 8 3 15 98 20 8 97 80 100 45 5 0 0 0 0 0 0 0 0 0 0 0 0 0 0 1 4 5 5 5 91 99 100 100 100
98 33 0 0 4 1 100 56 14 93 5 26 100 97 8 92 100 46 95 5 5 0 0 0 0 0 0 0 0 0 0 0 4 0 1 32 5 15 5 5 38 100 100 100
3 30 5 0 0 2 3 37 56 5 10 5 10 12 6 17 85 100 90 4 2 0 0 0 0 0 0 0 0 0 0 0 0 0 3 5 58 81 5 5 22 80 100 100
0 45 88 0 0 1 0 1 75 5 5 2 5 42 100 6 6 98 90 9 4 0 0 0 0 0 0 0 0 0 0 0 0 3 0 0 5 95 43 98 5 8 46 52
34 5 100 68 0 3 0 5 2 4 0 4 5 5 5 5 10 73 5 5 2 0 0 0 0 0 0 0 0 0 0 0 0 0 0 4 4 0 10 20 98 41 6 18
65 88 6 74 70 13 3 9 3 1 7 10 4 4 5 22 73 6 90 33 4 2 0 0 0 0 0 0 0 0 0 0 0 0 0 0 0 4 0 2 3 4 30 5
66 100 88 44 100 70 9 54 4 2 100 14 1 4 5 97 95 72 89 56 43 3 0 0 0 0 0 0 0 0 3 0 0 0 0 0 0 0 4 1 0 0 0 2
100 91 56 67 78 100 100 99 100 14 51 7 5 5 5 100 100 100 56 5 2 1 0 0 0 0 0 0 0 0 1 3 0 0 0 0 0 0 0 0 0 0 2 0
99 100 92 100 36 84 100 100 100 14 5 13 5 6 86 100 100 100 54 5 0 1 5 0 3 0 0 0 0 0 0 1 0 0 0 0 0 0 0 0 0 0 0 1
100 95 37 2 98 25 100 100 82 93 76 61 90 17 100 99 76 23 5 5 4 2 5 5 0 2 0 0 1 5 0 0 0 4 0 0 0 0 0 0 0 0 0 0
37 84 29 5 26 98 46 21 46 37 100 18 100 83 100 99 81 14 5 5 3 1 5 1 0 0 2 5 5 22 78 3 0 5 3 0 0 0 0 0 0 0 0 0

GFSCGP_prec_cloud_015.txt.gz
Cloud_Cover
100 11 75 100 100 60 13 99 100 100 100 100 100 100 100 100 100 100 69 6 0 0 9 0 0 0 0 0 0 0 0 0 0 0 4 96 100 100 54 83 90 81 51 5
98 9 100 100 97 7 95 100 100 100 100 100 100 100 100 100 96 88 4 5 2 0 0 0 0 0 0 0 0 0 0 0 0 0 7 81 100 99 64 97 100 84 43 66
7 94 100 100 100 100 100 100 100 100 100 100 100 81 90 100 99 2 1 21 4 0 0 0 0 0 0 0 3 2 0 0 0 0 18 10 82 43 99 100 100 91 66 85
66 100 100 98 43 100 100 100 78 6 17 31 37 100 100 52 0 17 95 12 52 5 0 0 0 0 0 1 2 0 0 0 0 0 1 4 97 96 100 97 95 100 86 100
95 100 100 50 100 100 100 100 100 100 100 100 86 35 2 5 2 4 2 4 1 3 0 0 0 0 0 0 0 0 0 0 0 5 0 19 100 100 71 36 9 80 100 100
100 100 78 99 100 100 100 100 100 100 100 100 98 98 4 0 2 5 0 0 0 0 0 0 0 0 0 0 0 0 0 0 6 17 0 8 86 97 100 56 61 100 100 99
100 100 100 100 100 100 100 100 100 100 97 12 0 3 3 3 4 26 1 0 0 0 0 0 0 0 0 0 0 0 0 0 0 2 5 7 98 100 100 100 59 100 100 98
100 98 100 100 100 100 34 90 24 47 5 0 64 2 0 43 31 8 25 0 0 0 0 0 0 0 0 0 0 0 0 0 0 0 7 59 100 100 100 81 18 100 100 100
97 46 99 92 100 100 94 74 54 0 5 3 18 24 98 6 14 94 4 48 0 0 0 0 0 0 0 0 0 0 0 0 0 0 1 5 95 100 100 33 95 67 56 83
0 3 1 5 0 2 3 28 85 33 24 0 0 4 5 42 60 7 5 0 0 0 0 0 0 0 0 0 0 0 0 0 0 0 0 20 100 100 100 70 69 51 76 79
0 0 0 4 0 0 0 12 91 61 0 0 0 0 5 6 77 5 4 5 0 0 0 0 0 0 0 0 0 0 0 0 0 0 1 38 100 100 100 85 32 60 79 76
0 0 0 0 3 0 0 0 12 5 2 0 0 1 5 15 31 5 5 0 0 5 0 0 0 0 0 0 0 0 0 0 0 0 0 81 100 100 100 98 73 34 6 78
19 0 0 0 0 1 1 0 1 5 1 0 7 14 24 6 47 6 0 0 0 0 0 0 0 0 0 0 0 0 0 0 0 0 4 100 100 100 100 58 94 26 19 91
12 0 0 0 14 46 36 7 3 2 0 56 92 19 11 65 13 21 5 0 0 0 0 0 0 0 0 0 0 0 0 0 0 0 9 100 100 100 100 100 100 100 66 100
86 16 0 0 0 0 0 0 0 0 5 3 97 6 9 12 40 10 2 5 0 0 0 0 0 0 0 0 0 0 0 0 0 0 0 61 80 35 100 100 100 100 78 96
5 45 9 0 0 0 0 0 0 0 5 4 5 5 5 50 62 12 86 44 1 0 0 0 0 0 0 0 0 0 0 0 0 0 0 14 100 11 100 100 100 100 97 46
3 5 44 0 0 0 5 65 2 1 5 3 3 100 10 98 55 22 100 22 1 0 0 0 0 0 0 0 0 0 0 0 0 0 0 0 60 70 70 55 97 100 100 100
0 5 5 17 6 0 3 1 1 5 3 0 32 100 19 5 69 77 5 5 4 0 0 0 0 0 0 0 0 0 0 0 0 0 0 0 0 5 5 5 5 98 100 100
0 5 5 5 4 0 5 5 5 27 4 4 0 28 100 5 11 81 5 24 5 5 0 0 0 0 0 0 0 0 0 0 0 0 0 1 5 7 5 5 5 6 100 100
4 2 52 5 2 0 89 15 8 53 24 5 0 11 98 5 1 5 5 68 70 5 5 0 0 0 0 0 0 0 0 0 0 0 0 0 0 3 5 8 5 5 5 50
82 99 12 12 25 2 92 78 100 5 2 2 5 2 5 5 1 1 0 63 89 5 5 2 0 0 0 0 0 0 0 0 0 0 0 0 0 0 5 5 5 4 1 5
100 100 61 13 96 1 13 99 22 2 1 4 5 0 5 4 4 1 6 100 100 59 5 5 5 0 0 0 0 0 0 0 0 0 0 0 0 0 0 0 0 0 0 0
100 100 62 41 36 65 98 100 68 0 4 5 0 5 5 5 3 0 5 100 100 100 50 4 5 0 0 0 0 0 0 0 0 0 0 0 0 0 0 0 0 0 0 0
100 76 0 23 16 94 100 100 100 77 35 64 1 5 5 24 5 0 1 83 100 100 89 5 0 5 3 0 0 0 0 0 0 0 0 0 0 0 0 0 0 0 0 0
100 100 100 100 92 22 100 100 92 94 34 5 5 4 10 67 5 1 0 38 100 100 6 5 2 0 0 0 0 0 0 0 0 0 3 0 0 0 0 0 0 0 0 0
100 100 97 91 5 18 37 21 32 72 10 0 2 2 4 54 36 5 0 9 100 21 5 5 2 0 0 0 0 0 0 0 2 0 0 1 0 0 0 0 0 0 0 0

GFSCGP_prec_cloud_021.txt.gz
Cloud_Cover
88 65 5 100 96 100 100 56 4 100 84 3 5 28 6 53 100 100 100 100 100 99 98 45 4 96 5 94 4 0 0 0 5 4 0 0 5 22 61 100 10 32 68 90
96 2 1 100 100 89 70 5 39 100 95 5 9 2 67 100 100 100 100 100 100 75 4 1 5 41 100 67 1 0 5 5 5 0 0 0 5 17 100 82 13 51 80 18
4 48 100 100 93 9 67 70 100 100 45 5 0 20 6 100 100 100 100 100 82 5 4 6 32 100 25 4 0 4 5 5 0 0 0 1 5 56 100 84 99 13 13 100
45 100 24 39 1 5 8 100 100 91 24 3 3 23 98 100 100 100 100 6 76 36 58 0 24 13 1 0 0 0 0 0 0 0 0 3 5 25 98 88 7 5 76 100
89 100 97 49 90 100 100 100 98 98 3 4 70 100 100 100 100 100 20 20 56 72 0 0 0 0 0 0 0 0 0 0 0 0 0 4 0 75 100 47 5 5 88 100
78 79 69 100 92 53 100 24 5 2 3 17 18 36 79 99 90 100 5 79 49 38 0 0 0 0 0 0 0 0 0 0 0 0 0 0 79 100 16 5 8 29 89 78
82 52 40 86 19 25 5 43 27 68 93 90 94 13 9 5 47 100 46 19 20 3 4 1 0 0 0 0 0 0 0 0 0 0 4 1 100 97 5 5 30 100 98 84
2 6 98 100 95 93 100 100 88 84 100 100 17 21 3 67 100 91 39 42 5 5 5 0 0 0 0 0 0 0 0 0 0 0 0 56 100 39 13 98 41 61 72 55
85 43 100 100 100 100 100 100 100 99 65 3 0 100 100 100 100 19 5 5 16 5 5 0 0 0 0 0 0 0 0 0 0 0 4 94 100 5 49 20 73 99 83 55
90 96 100 100 100 73 11 9 88 4 3 44 100 100 100 100 75 4 11 5 5 5 1 0 0 0 0 0 0 0 0 0 0 0 63 100 100 5 38 98 51 51 23 65
66 5 4 1 63 95 88 15 3 29 37 96 100 100 88 100 45 62 18 5 68 4 0 0 0 0 0 0 0 0 0 0 0 0 84 100 95 5 22 5 72 5 18 77
5 0 1 0 2 67 6 24 69 98 100 90 5 80 100 100 96 77 5 5 4 0 0 0 0 0 0 0 0 0 0 0 0 0 89 100 7 5 6 52 20 61 24 8
3 0 5 0 0 0 1 78 100 39 3 31 28 82 100 100 41 0 5 48 5 0 0 0 0 0 0 0 0 0 0 0 0 0 94 100 100 3 14 93 22 38 28 99
49 0 1 0 2 3 0 0 100 99 96 100 100 51 44 1 0 5 5 5 5 3 0 0 0 0 0 0 0 0 0 0 0 1 25 100 100 29 19 87 92 24 29 85
69 3 5 3 0 4 0 0 0 0 31 18 21 0 0 0 0 0 5 6 5 5 0 0 0 0 0 0 0 0 0 0 0 0 6 100 100 94 24 8 79 96 66 58
98 3 0 5 1 4 1 0 0 0 0 0 0 3 0 4 2 5 5 5 5 5 0 0 0 0 0 0 0 0 0 0 0 0 1 32 100 100 99 8 5 97 100 100
100 8 2 5 5 3 0 0 5 0 0 0 12 69 7 54 3 5 5 25 5 5 2 0 0 0 0 0 0 0 0 0 0 0 1 5 100 95 100 100 48 65 62 52
100 86 5 3 0 0 4 0 4 0 1 2 2 4 100 88 5 5 25 40 5 5 5 0 0 0 0 0 0 0 0 0 0 0 3 7 17 86 78 99 75 51 64 10
100 92 5 52 0 0 0 0 1 4 35 3 34 17 100 26 7 40 80 80 21 5 5 0 0 0 0 0 0 0 0 0 0 0 1 85 70 2 92 100 88 26 46 89
100 68 10 7 8 0 0 0 0 5 17 92 83 100 100 72 100 100 6 99 26 5 5 5 0 0 0 0 0 0 0 0 0 0 0 2 78 2 5 5 12 56 5 86
100 92 5 99 6 0 0 4 1 0 61 47 4 59 78 75 100 95 9 31 69 12 5 5 3 0 0 0 0 0 0 0 0 0 0 0 0 0 3 2 5 53 18 8
100 100 99 100 7 1 2 2 0 8 5 2 68 4 100 95 100 21 62 5 31 31 5 39 7 0 0 0 0 0 0 0 0 0 0 0 0 0 0 4 21 5 5 5
100 100 100 100 48 94 42 1 2 0 5 0 6 5 50 100 100 12 96 20 5 93 6 5 98 5 0 0 0 0 0 0 0 0 0 0 0 0 0 0 0 0 0 0
100 100 100 90 90 98 30 18 0 4 5 3 1 5 6 88 100 16 99 52 5 28 7 9 90 15 0 0 0 0 0 0 0 0 0 0 0 0 0 0 0 0 0 0
100 100 100 100 100 100 67 7 0 5 4 5 4 4 5 5 6 95 100 99 12 5 5 5 41 6 3 0 0 0 0 0 0 0 0 0 0 0 0 0 0 0 0 0
100 100 100 100 100 100 100 6 0 0 4 5 1 4 5 5 5 17 99 100 63 5 82 37 16 27 5 3 0 0 0 0 0 0 0 0 0 0 0 0 0 0 0 0

GFSCGP_prec_cloud_024.txt.gz
Cloud_Cover
11 18 2 100 100 96 100 96 86 98 100 73 5 4 52 85 2 3 5 9 5 5 0 100 14 4 2 87 75 100 0 0 5 5 5 5 0 0 4 5 5 11 97 100
76 2 90 44 15 4 5 5 22 100 100 4 4 0 43 5 0 5 5 37 27 0 90 48 5 0 5 58 5 5 0 0 0 2 5 3 0 0 8 7 24 53 96 100
3 20 100 45 11 5 23 2 100 100 59 0 0 0 4 16 18 44 18 98 4 82 100 5 1 2 5 4 5 0 0 0 0 5 3 0 0 0 0 46 100 100 100 100
3 23 9 14 12 85 8 43 100 100 47 0 0 1 3 77 56 89 7 15 21 98 47 4 0 0 0 0 0 0 0 0 4 2 0 0 0 3 6 99 56 100 83 92
36 100 99 8 11 89 4 100 100 100 4 0 0 0 100 5 35 9 100 63 34 49 5 0 0 0 0 0 0 0 0 0 0 0 0 0 0 5 44 18 5 100 100 100
6 39 35 11 100 100 100 100 100 75 0 0 20 40 100 5 81 77 7 1 5 52 5 3 0 0 0 0 0 0 0 0 0 0 0 0 5 6 57 74 57 38 98 84
34 97 46 51 94 52 53 44 9 0 0 1 100 97 100 9 83 8 5 2 44 6 5 0 0 0 0 0 0 0 0 0 0 0 0 0 5 68 94 100 68 96 95 55
78 100 100 99 94 97 96 99 100 96 92 93 100 100 52 5 94 99 5 20 88 5 3 1 0 0 0 0 0 0 0 0 0 0 0 1 5 48 98 99 16 80 93 55
0 36 100 100 100 100 91 5 62 77 100 100 100 99 5 16 100 100 8 100 5 5 5 0 0 0 0 0 0 0 0 0 0 0 0 5 89 39 6 5 5 57 18 29
0 1 5 100 100 88 16 74 3 4 54 11 6 62 99 100 100 100 27 74 8 5 2 0 0 0 0 0 0 0 0 0 0 0 0 20 23 82 33 34 24 5 5 30
0 0 0 62 100 100 86 12 0 8 3 4 90 100 68 94 100 55 11 97 32 6 0 0 0 0 0 0 0 0 0 0 0 0 5 34 63 8 5 5 5 5 5 11
0 0 0 0 100 100 98 6 8 6 77 100 100 100 100 100 100 71 93 100 33 5 0 0 0 0 0 0 0 0 0 0 0 0 37 90 8 5 5 5 5 77 22 19
20 0 0 0 1 97 22 99 100 81 0 28 95 72 97 100 100 89 100 97 5 1 0 0 0 0 0 0 0 0 0 0 0 0 100 100 5 5 5 5 25 98 12 100
96 4 0 0 1 64 89 5 3 20 58 100 100 86 100 100 100 100 100 6 5 3 0 0 0 0 0 0 0 0 0 0 0 0 49 97 34 5 5 40 91 92 92 100
97 5 0 0 0 0 0 0 0 62 100 100 100 93 100 100 99 36 45 5 5 5 0 0 0 0 0 0 0 0 0 0 0 1 4 69 71 7 5 5 47 88 100 78
100 10 0 0 0 0 0 0 0 0 72 100 12 44 100 68 5 5 6 67 6 5 5 0 0 0 0 0 0 0 0 0 0 0 0 5 5 31 100 74 30 27 54 100
100 62 16 0 0 0 0 0 0 0 1 4 19 88 26 5 3 5 33 78 68 5 5 0 0 0 0 0 0 0 0 0 0 0 0 0 19 66 100 100 96 58 16 100
100 100 59 2 0 0 48 0 0 6 15 0 2 4 5 5 1 5 42 94 83 5 5 5 2 0 0 0 0 0 0 0 0 0 4 3 12 5 21 82 53 42 76 20
100 100 100 74 10 0 1 0 0 0 9 4 5 5 5 0 0 5 5 76 100 38 5 5 5 0 0 0 0 0 0 0 0 0 6 12 5 12 47 58 51 19 26 64
100 100 100 15 82 1 0 0 0 5 10 4 0 5 5 5 5 14 5 36 69 29 5 5 5 0 0 0 0 0 0 0 0 0 0 44 99 5 5 5 5 5 58 86
100 100 100 76 16 0 0 0 0 1 6 5 4 1 5 8 100 43 36 82 62 36 8 5 5 4 0 0 0 0 0 0 0 0 0 0 0 0 4 5 4 5 26 20
100 100 100 89 22 4 0 0 18 8 1 5 9 5 90 100 100 7 11 87 100 8 7 5 5 5 0 0 0 0 0 0 0 0 0 0 0 0 0 0 5 5 13 7
100 100 100 98 46 94 77 97 82 15 4 0 5 32 52 100 43 58 5 5 95 86 5 5 5 5 5 0 0 0 0 0 0 0 0 0 0 0 0 0 0 0 0 0
100 100 99 100 100 100 100 100 100 43 4 0 5 42 16 100 94 5 21 5 29 100 6 31 5 5 5 0 0 0 0 0 0 0 0 0 0 0 0 0 0 0 0 0
100 100 100 97 100 100 100 100 100 39 5 1 4 7 94 97 100 28 20 5 3 96 95 44 5 5 5 4 1 0 0 0 0 0 0 0 0 0 0 0 0 0 0 0
100 100 100 100 100 100 100 100 100 6 0 5 0 73 94 99 76 44 5 5 36 8 100 100 29 5 5 5 4 2 0 0 0 0 0 0 0 0 0 0 0 8 9 2

GFSCGP_prec_cloud_027.txt.gz
Cloud_Cover
3 10 0 12 8 1 0 2 5 4 39 14 6 24 100 100 99 99 100 90 5 0 0 0 0 0 0 1 1 78 5 5 5 2 0 0 0 0 0 0 5 25 77 92
4 0 40 10 72 1 0 0 0 3 64 11 4 18 5 82 5 49 100 41 4 0 0 5 4 4 0 0 2 3 4 5 5 0 0 0 0 0 0 1 20 95 59 62
0 0 32 44 42 0 0 0 1 2 68 97 5 22 2 14 2 71 100 6 1 5 5 13 10 0 0 0 0 0 0 0 0 0 0 0 0 0 0 2 7 12 10 53
0 0 0 0 0 3 1 3 6 89 100 29 82 16 0 0 0 0 5 31 4 5 64 76 0 0 0 0 0 0 0 0 0 0 0 0 0 0 0 5 99 47 65 92
0 0 0 0 6 100 27 98 100 100 99 11 5 17 78 0 4 70 11 0 6 92 74 0 0 0 0 0 0 0 0 0 0 0 0 0 0 0 2 58 82 77 98 100
0 0 0 0 92 95 100 84 60 70 65 78 3 5 99 21 26 2 10 11 7 15 0 1 0 0 0 0 0 0 0 0 0 0 0 0 0 0 5 8 63 96 99 100
0 0 0 0 1 6 5 80 83 89 91 2 2 0 100 57 5 5 6 4 22 5 4 0 0 0 0 0 0 0 0 0 0 0 0 0 0 5 5 28 35 78 100 91
0 0 0 0 0 27 100 80 12 41 5 3 5 25 100 50 5 88 5 59 58 5 0 0 0 0 0 0 0 0 0 0 0 0 0 0 41 5 7 29 82 68 87 50
0 0 0 0 92 100 65 1 45 5 0 0 98 100 100 5 35 94 7 71 30 10 0 0 0 0 0 0 0 0 0 0 0 0 0 3 39 4 5 57 54 59 61 50
1 0 0 0 44 35 1 90 3 0 0 3 100 100 100 54 100 100 29 42 100 7 5 0 0 0 0 0 0 0 0 0 0 0 5 4 1 5 5 8 29 56 57 41
2 2 0 0 0 0 1 0 0 0 2 18 100 100 100 62 100 76 5 56 98 54 5 0 0 0 0 0 0 0 0 0 0 0 4 5 0 0 5 14 100 62 50 44
2 12 0 0 3 95 98 5 5 0 77 100 100 100 100 96 100 60 99 100 100 96 1 0 0 0 0 0 0 0 0 0 0 0 5 0 4 4 5 53 50 73 100 47
86 26 1 0 0 75 75 1 0 0 1 41 99 100 13 99 91 5 66 100 100 97 1 0 0 0 0 0 0 0 0 0 0 5 5 0 0 5 14 59 96 100 94 75
99 47 0 0 0 20 2 2 2 0 18 94 100 100 62 100 100 46 100 100 100 39 0 0 0 0 0 0 0 0 0 0 0 5 1 5 3 5 7 64 100 53 97 89
100 52 4 0 0 0 0 0 30 29 100 89 100 78 100 100 33 47 100 100 61 5 0 0 0 0 0 0 0 0 0 0 0 0 5 9 0 5 5 18 59 95 55 99
100 99 5 0 0 0 0 0 5 5 99 100 98 91 100 100 97 100 100 100 42 5 1 0 0 0 0 0 0 0 0 0 0 0 7 5 5 64 94 6 36 44 75 99
100 99 19 0 0 0 0 0 10 100 100 100 98 100 100 100 100 100 46 92 11 5 5 1 0 0 0 0 0 0 0 0 0 0 3 3 32 99 56 11 23 85 98 99
100 100 98 4 2 0 0 0 0 99 100 100 19 45 100 74 5 4 35 5 5 5 5 5 0 0 0 0 0 0 0 0 0 0 0 0 4 10 5 72 4 23 84 100
100 100 92 77 2 0 0 0 0 9 100 3 0 3 13 1 0 5 23 46 11 5 5 5 1 0 0 0 0 0 0 0 0 0 0 0 0 5 1 5 8 5 20 67
100 100 92 50 5 2 30 0 0 39 18 0 0 4 0 0 4 91 29 8 65 11 5 5 5 4 0 0 0 0 0 0 0 0 2 0 0 0 3 5 4 9 33 18
100 100 93 69 45 4 3 0 0 1 0 0 0 6 5 7 8 5 100 5 18 25 5 5 5 1 0 0 0 0 0 0 0 0 0 0 1 0 0 0 0 4 6 70
100 100 93 95 58 50 9 0 1 0 0 0 0 77 5 5 0 4 98 30 87 5 21 5 5 5 0 0 0 0 0 0 0 0 0 0 0 0 0 0 2 0 3 4
100 95 99 61 39 76 100 80 12 0 3 0 0 100 7 5 3 5 71 100 100 80 40 64 36 5 0 0 0 0 0 0 0 0 0 0 0 0 0 0 0 0 0 0
100 100 94 79 76 89 100 100 85 74 3 3 1 100 26 4 5 5 21 100 100 100 66 42 80 5 1 3 0 0 0 0 0 0 0 0 0 0 0 0 0 0 0 0
100 100 100 98 98 100 100 100 100 98 86 2 0 91 99 5 4 5 5 16 92 96 100 10 31 41 6 5 4 0 0 0 0 0 0 0 0 0 0 0 0 0 0 0
100 95 100 99 98 76 100 100 100 100 99 5 3 27 100 31 0 4 5 5 14 100 100 100 6 37 39 13 5 4 4 0 0 0 0 0 0 0 0 0 0 71 39 0

GFSCGP_prec_cloud_030.txt.gz
Cloud_Cover
0 0 0 92 71 0 0 5 4 5 17 28 6 8 0 4 2 3 100 100 100 96 35 5 68 5 5 5 0 0 0 5 5 10 6 5 4 0 0 0 9 99 39 100
0 0 2 89 1 0 1 2 0 5 81 4 6 4 5 15 2 4 72 6 80 3 0 26 5 0 1 1 0 0 0 2 5 1 0 1 0 0 0 0 10 25 62 100
0 0 29 3 0 0 0 0 2 4 100 87 4 1 0 0 1 0 0 0 0 0 0 4 4 2 4 0 0 0 0 0 0 0 0 0 0 0 0 7 10 90 84 69
0 0 0 0 0 0 0 0 7 91 100 2 88 18 0 3 0 0 0 0 0 0 0 0 5 2 0 0 0 0 0 0 0 0 0 0 0 0 0 5 8 36 67 81
0 0 0 0 0 0 0 0 0 4 0 3 2 28 0 3 0 0 0 5 1 0 0 5 2 0 0 0 0 0 0 0 0 0 0 0 0 0 3 5 15 57 36 66
0 0 0 0 0 0 0 0 0 0 0 0 0 65 4 53 25 0 0 5 2 5 5 5 0 0 0 0 0 0 0 0 0 0 0 0 0 2 11 34 66 94 48 99
3 0 0 0 0 0 0 0 0 1 1 2 8 72 43 23 0 0 1 5 24 26 27 2 0 0 0 0 0 0 0 0 0 0 0 0 0 8 44 37 54 57 48 61
40 5 0 0 0 0 0 0 0 1 4 12 50 4 98 31 89 0 16 98 71 91 6 5 0 0 0 0 0 0 0 0 0 0 0 0 11 41 40 34 54 58 46 18
100 14 1 0 0 0 0 0 0 0 5 26 42 3 100 100 100 62 100 88 100 96 8 5 0 0 0 0 0 0 0 0 0 0 0 6 24 15 24 40 36 18 43 34
100 76 78 0 0 0 0 0 0 0 16 97 13 26 100 100 41 57 92 99 100 38 7 5 0 0 0 0 0 0 0 0 0 1 0 33 36 31 16 44 56 100 36 43
96 66 100 78 0 0 0 0 0 0 5 66 12 100 100 100 38 100 89 100 100 95 6 3 5 0 0 0 0 0 0 0 0 2 6 33 30 32 36 80 44 73 54 70
75 97 100 78 0 0 0 0 0 0 1 7 50 100 100 100 100 100 100 100 100 100 12 5 0 0 0 0 0 0 0 0 0 0 0 25 33 35 56 84 73 99 93 31
81 72 90 100 85 0 0 0 0 2 4 6 92 100 100 10 100 100 100 100 27 100 71 0 0 0 0 0 0 0 0 0 0 1 1 27 25 39 72 77 70 98 98 100
100 100 86 100 15 0 0 0 0 4 28 48 92 87 99 14 100 100 89 99 100 100 5 2 0 0 0 0 0 0 0 0 0 5 2 2 41 40 51 62 72 74 100 100
97 20 98 100 64 0 5 0 0 3 100 25 72 100 100 4 90 100 100 100 100 93 29 0 0 0 0 0 0 0 0 0 0 3 3 7 23 33 44 59 65 54 100 100
92 60 100 100 11 5 0 0 0 5 83 38 46 62 5 16 100 100 100 100 100 99 1 0 0 0 0 0 0 0 0 0 0 0 22 1 55 98 86 71 36 28 41 100
100 100 28 100 100 53 2 8 98 22 92 100 92 65 5 29 100 100 100 100 100 16 0 0 0 0 0 0 0 0 0 0 0 0 23 9 52 72 91 57 99 68 66 100
95 100 46 100 100 91 80 79 100 74 100 100 46 1 26 100 100 99 100 100 98 3 0 0 0 0 0 0 0 0 0 0 0 0 1 3 14 41 76 92 65 84 100 100
100 100 96 98 100 82 99 75 100 100 6 90 4 10 66 80 100 100 100 100 68 5 5 0 0 0 0 0 0 0 0 0 0 0 0 0 0 4 34 28 25 62 93 70
100 100 100 87 100 100 97 2 97 11 44 99 5 7 5 84 100 100 100 100 53 5 5 0 0 0 0 0 0 0 0 0 0 0 0 0 0 3 5 5 12 85 93 67
99 100 100 95 97 86 92 11 2 0 8 5 5 5 5 12 40 2 5 24 6 5 3 0 0 0 0 0 0 0 0 0 0 0 0 0 0 1 0 0 29 92 74 100
100 100 91 99 100 100 79 12 83 55 3 4 5 9 13 5 2 5 1 11 68 6 3 5 1 0 0 0 0 0 0 0 0 0 0 0 0 0 0 1 44 74 97 100
100 100 100 95 100 76 11 86 64 22 31 9 4 19 5 0 0 5 4 56 60 5 5 18 24 1 0 0 0 0 0 0 0 0 0 0 0 0 0 0 12 52 73 7
99 77 99 54 100 80 95 11 4 1 0 22 5 5 3 0 2 5 5 100 69 88 100 98 5 5 0 0 0 0 0 0 0 0 0 0 0 0 0 0 0 0 4 0
100 100 99 78 98 99 100 100 58 17 0 7 5 5 0 0 1 5 8 100 30 10 100 100 100 15 13 2 0 0 0 0 0 0 0 0 0 0 0 0 0 0 0 0
100 100 100 100 100 100 100 100 100 99 69 2 0 17 2 0 0 5 5 98 100 12 18 46 100 100 88 6 2 0 0 0 0 0 0 0 0 0 0 0 0 62 64 0

GFSCGP_prec_cloud_033.txt.gz
Cloud_Cover
0 0 0 0 14 80 34 2 5 85 100 99 5 8 100 47 5 0 5 47 5 100 34 3 0 17 75 7 0 0 0 0 2 7 8 5 6 5 0 0 0 0 6 68
0 0 0 5 0 0 0 0 3 3 39 95 92 27 97 37 1 2 4 0 0 3 1 0 0 3 3 0 0 0 0 1 0 0 1 0 0 0 0 5 20 11 10 59
0 0 1 0 0 0 0 0 0 0 2 69 85 76 3 6 5 0 0 0 4 0 0 0 0 1 0 0 0 0 0 0 0 0 0 0 0 0 0 0 0 1 14 96
0 0 0 0 0 0 0 0 0 0 5 44 47 17 0 1 4 2 0 85 13 0 0 0 4 5 4 3 0 0 0 0 0 0 0 0 0 0 4 0 0 5 25 96
0 0 0 0 0 0 0 0 0 0 0 0 0 3 5 0 0 0 68 3 2 0 0 0 5 35 5 3 0 0 1 0 0 0 0 0 0 0 0 0 5 8 100 100
0 0 0 0 0 0 0 0 0 5 2 2 0 3 0 3 1 5 24 6 5 0 0 0 3 94 5 2 0 0 0 3 0 0 0 0 0 0 0 9 41 7 28 86
0 3 4 0 0 0 0 0 0 1 0 0 0 4 0 66 0 3 0 4 3 0 5 0 36 32 9 0 0 0 0 0 0 0 0 0 0 0 2 21 10 82 28 20
0 0 0 0 0 0 0 0 0 0 0 0 0 1 0 4 0 0 0 0 0 24 50 25 85 94 0 2 0 0 0 0 0 0 0 0 0 17 44 34 22 89 96 7
98 3 1 2 0 0 0 1 0 0 0 0 2 100 89 1 0 0 0 0 2 5 90 100 100 5 5 1 0 0 0 0 0 0 0 2 18 9 54 14 19 8 76 15
35 66 1 30 4 2 0 0 0 0 0 1 27 65 100 74 0 0 5 4 27 94 100 100 17 5 5 3 0 0 0 0 0 0 0 22 100 73 99 45 60 32 25 100
96 25 46 23 37 0 0 17 0 0 0 1 61 100 89 2 0 32 67 10 99 100 100 100 100 42 5 1 0 0 0 0 0 0 1 92 100 100 98 48 21 38 54 39
90 99 93 86 100 5 0 2 2 0 0 6 99 100 5 1 5 85 99 100 100 100 77 88 71 28 4 0 0 0 0 0 0 0 0 69 100 100 39 97 11 69 26 58
45 32 89 84 93 78 72 5 5 5 77 67 93 100 6 19 64 100 94 99 100 100 99 100 100 6 1 0 0 0 0 0 0 0 0 100 100 75 91 96 98 92 90 100
96 50 88 100 86 96 52 20 30 44 98 98 10 90 5 100 100 97 100 100 100 100 87 100 10 5 0 0 0 0 0 0 0 0 5 40 50 51 100 74 100 94 79 100
100 60 71 100 100 100 80 100 100 100 92 100 92 100 90 100 84 70 100 100 100 100 98 28 6 3 0 0 0 0 0 0 0 0 0 50 43 61 99 81 58 90 39 97
100 60 100 100 100 100 100 100 100 100 80 100 100 100 100 100 27 88 100 100 100 100 84 44 64 0 0 0 0 0 0 0 0 0 2 52 100 99 100 94 65 11 58 99
100 89 100 100 100 93 100 100 100 100 100 64 35 100 70 100 100 100 100 100 97 100 100 95 2 0 0 0 0 0 0 0 0 0 5 67 100 83 100 74 100 100 59 54
100 96 100 100 100 100 49 100 97 100 100 78 100 100 76 87 100 100 100 99 100 100 95 16 0 0 0 0 0 0 0 0 0 1 0 24 93 78 100 44 72 100 18 82
96 98 100 100 100 100 100 96 100 100 100 100 100 100 94 86 69 98 100 97 100 100 100 0 0 0 0 0 0 0 0 0 0 5 0 2 1 92 100 86 97 87 84 99
100 100 100 100 100 100 99 65 17 98 100 44 100 3 0 50 98 100 100 100 100 100 5 0 0 0 0 0 0 0 0 0 0 0 0 0 0 2 46 21 54 72 79 25
54 100 100 100 100 100 98 68 7 4 75 100 100 5 0 26 15 98 100 100 100 68 4 0 0 0 0 0 0 0 0 0 0 0 0 0 0 4 4 4 66 51 27 43
95 100 100 100 100 100 98 96 48 92 94 100 64 20 63 90 100 57 100 95 69 6 0 1 0 0 0 0 0 0 0 0 0 0 0 0 0 0 0 4 100 99 85 100
100 100 100 100 100 100 100 100 100 100 100 100 100 100 100 100 100 100 87 5 5 5 3 2 0 0 0 0 0 0 0 0 0 0 0 0 0 0 0 0 86 98 0 14
100 100 100 100 100 100 100 100 98 100 100 100 98 100 100 100 100 79 5 5 5 0 4 5 5 5 3 0 0 0 0 0 0 0 0 0 0 0 0 0 0 12 3 0
100 99 100 100 100 100 100 100 98 100 100 100 76 100 100 100 100 91 39 5 4 19 5 5 5 14 6 0 0 0 0 0 0 0 0 0 0 0 0 0 0 0 0 10
74 100 100 100 100 100 97 67 99 100 100 100 61 99 100 100 80 43 14 5 4 100 90 5 5 99 40 4 2 0 0 0 0 0 0 0 0 0 0 0 0 61 18 0

GFSCGP_prec_cloud_036.txt.gz
Cloud_Cover
0 0 0 0 0 23 100 46 1 0 18 8 21 4 3 5 92 6 9 6 11 94 5 4 9 0 1 0 0 0 5 3 0 0 4 44 5 5 2 0 0 0 0 0
0 0 0 0 0 0 0 0 0 28 99 69 92 12 0 5 60 41 30 40 75 3 45 85 6 0 0 0 0 5 9 5 2 0 0 0 0 0 0 2 14 0 0 0
0 0 0 0 0 0 0 0 0 0 2 2 2 1 0 37 29 65 5 40 3 1 0 0 2 0 0 0 0 5 96 25 5 0 0 1 2 2 0 4 0 0 0 0
0 0 0 0 0 0 0 0 0 0 0 0 0 6 0 11 0 3 3 5 3 0 2 38 4 0 0 0 5 64 97 54 2 0 0 0 0 0 0 0 99 0 4 5
0 0 0 0 0 0 0 0 0 0 0 0 0 2 4 0 0 0 0 0 0 0 66 79 18 0 0 4 12 100 91 8 3 0 0 0 0 0 0 0 0 0 4 62
0 0 0 0 0 0 0 0 0 0 0 8 0 0 0 0 0 0 0 0 3 95 45 1 0 0 5 5 5 62 45 16 0 0 0 0 0 0 0 0 0 5 37 100
0 0 0 0 0 0 0 0 0 0 0 0 0 0 0 0 0 0 0 0 1 10 100 42 0 3 5 5 25 91 46 0 0 0 0 0 0 0 0 0 3 20 95 100
100 44 0 0 0 0 0 0 0 0 0 0 0 0 0 0 0 0 0 1 1 0 2 0 27 83 76 75 100 34 0 0 0 1 0 0 0 5 20 0 36 82 100 5
45 17 1 0 0 2 0 0 0 0 0 0 0 0 0 1 0 3 0 0 0 0 5 5 98 100 100 100 27 1 5 0 2 5 0 0 4 1 1 0 100 37 4 5
26 8 5 0 0 0 1 0 0 0 0 0 0 0 0 15 4 0 0 0 0 0 3 38 100 100 100 74 0 4 5 2 8 1 0 29 16 90 79 60 69 5 16 11
68 10 2 0 0 0 3 2 2 0 0 0 0 0 88 96 32 0 0 0 2 0 6 60 100 100 95 5 19 5 1 0 0 0 0 90 66 94 56 5 3 5 27 40
99 84 34 5 27 30 99 19 13 0 0 0 0 0 0 4 1 0 0 1 62 1 62 100 100 42 5 61 7 0 0 0 0 0 7 93 100 96 80 5 5 5 20 84
100 28 54 88 36 36 90 74 5 1 34 0 0 0 15 16 0 0 0 4 86 93 100 100 100 93 100 44 5 0 0 0 0 22 5 96 77 100 0 63 53 28 74 100
85 70 70 97 97 98 100 97 20 21 2 0 1 95 15 13 14 13 92 95 87 98 100 100 31 97 84 5 0 0 0 0 0 9 30 89 6 4 8 5 5 5 23 99
95 68 82 100 100 100 100 68 100 100 8 3 9 85 86 13 90 7 5 88 91 100 100 88 88 100 21 4 0 0 0 0 0 0 65 24 1 14 5 54 93 5 38 100
98 100 81 100 100 100 100 31 53 100 57 5 93 100 95 83 6 4 100 97 100 100 100 100 100 73 21 0 0 0 0 0 0 0 21 36 30 94 8 78 92 100 69 95
100 100 100 100 100 100 99 0 36 2 98 11 100 100 35 52 100 68 100 30 97 100 100 100 100 100 0 0 0 0 0 0 0 0 31 16 100 30 76 98 75 92 65 67
100 100 100 100 100 100 30 67 92 69 100 28 100 100 100 69 97 8 63 46 56 100 72 100 100 87 0 0 0 0 0 0 0 0 32 6 41 23 7 94 99 70 14 21
100 100 100 100 100 100 100 100 100 100 100 100 94 89 100 91 68 42 53 35 100 100 73 100 100 100 0 0 0 0 0 0 0 0 11 29 4 59 7 56 97 100 28 73
100 100 100 100 100 100 100 48 100 100 98 100 100 96 5 28 100 79 5 53 100 100 100 100 100 53 0 0 0 0 0 0 0 0 8 37 1 5 24 3 72 99 42 92
100 100 100 100 100 100 100 100 68 100 79 100 99 9 96 3 14 59 96 100 100 100 99 100 68 0 0 0 0 0 0 0 0 0 0 17 1 18 0 1 10 100 11 23
100 100 100 100 100 100 100 100 100 100 98 79 41 4 5 82 100 100 100 100 100 100 100 100 4 0 0 0 0 0 0 0 0 0 0 0 0 0 0 0 1 20 27 73
100 100 100 100 100 100 100 100 100 100 97 92 2 0 70 100 100 24 100 100 100 100 100 100 5 4 0 0 0 0 0 0 0 0 0 0 0 0 0 2 0 0 1 6
100 100 100 100 100 100 100 100 100 100 18 94 8 5 100 100 100 28 100 100 100 100 84 61 5 5 0 0 0 0 0 0 0 0 0 0 0 0 0 0 0 0 0 5
100 100 100 100 100 100 100 100 100 100 100 12 93 78 100 100 100 100 100 100 82 6 1 5 0 4 3 0 0 0 0 0 0 0 0 0 0 0 0 0 17 64 6 0
100 100 100 100 96 100 100 100 100 100 100 4 5 92 100 100 100 100 100 100 100 90 5 0 0 1 5 3 0 0 0 0 0 0 0 0 0 0 0 0 0 72 2 0

GFSCGP_prec_cloud_039.txt.gz
Cloud_Cover
0 0 1 6 98 98 100 2 0 1 61 67 0 0 0 0 5 0 5 6 76 25 66 82 7 2 3 4 5 0 0 0 0 5 59 63 5 5 3 39 22 0 0 0
0 0 0 0 5 2 0 4 0 3 85 98 4 0 0 0 0 0 4 5 15 2 1 2 0 3 0 0 4 0 0 0 0 5 5 4 22 5 0 0 0 0 0 0
3 0 0 0 0 0 0 0 3 50 100 80 2 0 0 0 3 96 1 38 6 19 2 0 0 5 1 2 1 0 0 0 5 5 5 5 5 1 0 0 0 1 21 0
0 0 0 0 0 0 0 0 0 0 0 0 0 0 0 0 0 0 0 1 0 0 0 0 1 5 3 0 0 0 5 5 5 5 4 57 1 0 0 0 32 66 0 0
0 0 0 0 0 0 0 0 0 0 0 0 0 0 0 0 0 0 0 0 0 0 0 0 3 5 5 0 0 4 41 92 8 5 5 3 0 0 0 0 0 0 0 15
2 0 0 0 0 0 0 0 0 0 0 0 0 0 0 0 0 0 0 0 0 0 0 0 4 4 0 0 1 5 20 8 14 21 5 3 0 0 0 0 0 0 1 8
3 1 0 0 0 0 0 0 0 0 0 0 0 0 0 0 0 0 0 0 0 0 0 0 4 0 0 1 5 14 50 41 44 7 5 0 0 0 0 0 0 1 20 5
88 4 0 0 0 0 0 0 0 0 0 0 0 0 0 0 0 0 0 0 0 0 0 0 0 0 0 23 39 86 82 6 5 5 1 0 0 0 0 0 2 28 20 4
54 4 4 0 0 0 0 0 0 0 0 0 0 0 0 0 0 0 0 0 0 0 0 0 0 2 6 18 90 96 5 5 5 4 0 0 0 0 0 0 2 5 1 0
58 3 0 3 30 0 0 0 1 0 0 0 0 0 0 0 0 3 0 0 0 0 0 0 0 2 61 100 95 14 5 5 0 0 0 0 0 48 0 0 0 5 5 30
2 2 0 0 78 5 2 0 2 0 0 0 0 0 0 0 4 8 0 0 0 0 0 0 0 11 100 100 100 4 5 4 0 0 0 80 22 18 3 0 0 5 82 100
5 11 17 5 22 99 15 0 2 5 0 0 0 0 0 4 81 10 7 0 0 0 0 5 2 97 100 83 71 100 7 0 0 0 0 93 23 3 5 0 5 5 82 70
0 5 94 1 54 100 4 0 1 19 5 0 0 0 0 4 11 47 3 0 0 0 5 93 100 100 100 23 84 55 2 0 0 18 36 99 2 3 5 0 5 20 77 92
54 86 99 44 98 100 50 7 53 98 5 0 0 0 0 3 0 0 0 0 0 0 6 95 100 100 67 99 98 6 0 0 0 99 37 22 0 1 0 0 34 8 91 100
100 100 98 100 12 80 6 10 66 81 0 0 0 3 49 89 13 5 0 0 0 0 46 100 62 90 100 100 3 2 0 0 0 1 39 84 0 0 0 15 38 100 89 100
100 98 96 100 100 85 93 9 100 53 3 0 0 5 73 42 98 1 0 0 0 0 99 100 100 100 100 29 61 0 0 0 0 0 30 45 0 0 0 3 12 94 56 49
100 61 99 100 98 94 99 1 100 95 5 0 2 77 96 30 37 82 10 0 0 10 99 100 100 100 100 100 13 0 0 0 0 0 0 8 0 16 3 8 32 67 11 48
100 98 97 100 100 100 100 95 71 9 4 11 100 90 100 96 100 44 99 6 0 89 96 100 86 66 100 100 7 0 0 0 0 0 0 0 0 0 0 11 100 100 46 94
98 99 100 100 100 99 100 100 100 96 100 97 100 26 100 91 22 100 87 0 1 93 100 100 100 100 100 100 21 0 0 0 0 0 0 0 0 2 0 5 100 92 100 98
100 100 100 100 100 100 100 100 100 100 84 64 100 100 100 15 41 24 4 5 0 100 100 100 91 100 100 82 0 0 0 0 0 0 3 0 0 0 0 5 95 96 96 79
100 100 100 100 100 100 100 100 100 100 100 100 70 96 100 100 100 47 70 44 100 100 100 99 80 78 88 13 0 0 0 0 0 0 0 0 0 0 0 2 38 100 40 45
100 99 100 100 100 100 100 100 100 100 100 100 100 100 100 88 94 94 82 100 100 100 100 100 96 100 5 0 0 0 0 0 0 0 0 0 0 0 0 0 1 8 38 100
100 100 100 100 100 100 100 100 100 100 100 93 98 100 100 50 100 100 91 30 100 100 100 100 100 100 80 0 0 0 0 0 0 0 0 0 0 0 0 0 0 26 23 100
100 100 100 100 100 100 100 100 100 100 100 100 70 100 100 37 14 48 100 74 98 100 100 100 100 100 22 3 3 0 0 0 0 0 0 0 0 0 0 0 0 1 17 30
98 100 100 100 100 100 100 100 100 100 100 100 100 100 100 71 9 5 82 100 97 100 100 100 100 100 9 5 5 0 0 0 0 0 0 0 0 0 0 0 6 0 0 1
97 100 100 100 100 100 100 100 100 100 100 100 65 95 98 6 5 84 100 100 100 100 83 100 100 100 5 5 5 0 0 0 0 0 0 0 0 0 0 0 0 77 53 1

GFSCGP_prec_cloud_042.txt.gz
Cloud_Cover
100 94 9 86 60 99 1 0 3 64 79 99 9 0 5 5 0 0 5 5 6 79 5 12 2 0 5 5 5 0 0 0 2 0 1 0 0 0 0 0 1 10 3 39
0 0 19 0 0 0 0 0 1 5 100 100 100 5 0 0 0 1 5 9 100 3 0 0 0 0 5 4 5 70 3 0 1 0 5 3 4 0 0 10 2 45 100 29
0 0 0 0 0 0 0 0 12 46 100 100 74 0 0 24 2 13 5 97 85 0 3 0 0 1 5 5 2 0 1 4 0 5 5 12 5 5 4 1 3 35 0 0
0 0 0 0 0 0 0 0 0 3 0 0 52 0 0 64 88 90 100 99 2 5 0 0 0 2 4 0 0 0 0 0 5 8 50 5 10 22 3 0 0 0 0 20
0 0 0 0 0 0 0 0 0 0 0 0 0 0 0 6 62 100 100 5 0 0 0 0 0 0 0 0 5 31 0 0 5 14 1 24 96 5 0 0 0 0 0 0
5 6 0 0 0 0 0 0 0 0 0 0 0 0 0 0 5 45 2 0 0 0 0 0 0 0 0 1 4 1 0 5 5 4 67 82 5 0 0 0 0 0 0 13
98 62 5 4 0 0 0 0 0 0 0 0 0 0 0 0 0 0 0 0 0 0 0 0 0 0 0 19 1 0 1 33 3 93 82 5 0 0 0 0 0 0 4 5
98 43 9 40 4 0 0 0 0 0 0 0 0 0 0 0 0 0 0 0 0 0 0 0 0 2 4 5 0 0 5 5 90 88 6 0 0 0 0 0 0 0 1 0
97 9 89 12 47 5 2 0 0 0 0 0 0 0 0 0 0 0 0 0 0 0 0 0 0 0 0 0 0 6 96 100 99 34 0 0 0 0 0 0 0 0 3 4
0 0 4 100 91 6 5 3 0 0 0 0 0 0 0 0 0 0 0 0 0 0 0 0 0 0 0 0 5 43 100 100 6 0 0 0 0 0 0 0 0 0 1 1
0 2 0 3 90 5 80 9 2 0 0 0 0 0 0 0 0 0 0 0 0 0 0 0 0 0 0 5 72 100 100 100 54 0 0 0 0 0 0 0 0 0 4 5
2 5 15 0 0 14 100 4 4 0 0 0 0 0 0 0 0 0 0 0 0 0 0 0 0 0 6 79 100 100 7 4 0 0 0 0 0 0 3 3 0 5 5 74
33 18 5 1 1 5 98 99 0 0 0 0 0 0 0 0 0 0 5 1 0 0 0 0 0 3 100 100 94 3 5 0 0 0 0 0 0 0 0 0 0 0 28 95
100 100 20 5 15 49 35 82 21 2 0 0 0 0 9 0 5 4 10 0 0 0 0 0 0 94 100 67 42 80 0 0 0 0 0 0 0 0 0 0 4 68 75 93
100 99 20 81 83 69 6 42 89 88 4 1 0 0 10 1 15 5 3 0 0 0 0 0 41 100 100 86 100 77 5 0 0 0 1 0 4 0 0 0 2 5 6 98
60 99 95 100 100 100 89 96 100 92 5 0 0 5 100 5 0 0 0 0 0 0 0 0 3 83 92 100 100 100 5 0 0 0 0 30 7 0 0 4 13 5 5 87
100 100 98 100 100 98 53 100 100 5 0 0 0 30 100 3 5 2 0 0 0 5 0 0 52 100 99 100 100 98 5 0 0 0 0 61 2 0 0 5 19 48 30 88
100 53 45 96 100 93 39 100 74 0 0 2 0 86 100 4 2 0 1 33 81 2 0 0 72 100 100 100 100 44 5 0 0 0 0 0 0 0 5 4 5 33 93 61
100 62 78 100 100 100 80 78 74 93 1 42 14 6 2 0 42 90 62 97 87 58 2 2 97 100 100 100 91 5 3 0 0 0 0 0 0 0 5 0 5 58 85 86
100 100 100 100 100 100 100 86 100 100 98 16 23 5 5 9 99 80 98 100 99 90 93 13 100 100 100 100 93 62 0 0 0 0 0 0 0 0 0 0 11 98 19 100
100 100 100 100 100 100 100 100 72 96 76 99 46 21 2 27 4 88 30 98 100 100 82 65 99 100 100 72 94 1 0 0 0 0 0 0 0 0 0 0 2 32 36 47
100 100 100 100 100 100 100 100 98 100 100 100 97 22 91 100 100 65 100 100 100 40 50 100 94 100 98 55 14 3 0 0 0 0 0 0 0 0 2 1 27 46 36 43
100 100 100 100 100 100 100 100 100 100 100 100 100 44 100 81 97 100 100 100 100 92 98 100 95 100 98 100 100 5 4 0 0 0 0 0 0 0 4 10 58 99 44 98
100 100 100 100 100 100 100 100 100 100 100 100 100 100 100 97 37 88 100 100 100 100 100 100 100 100 100 100 100 45 2 0 0 0 0 0 0 1 8 8 43 97 42 100
100 100 100 100 100 100 100 100 100 100 100 100 100 100 100 100 100 67 99 98 100 100 100 80 100 100 100 100 100 13 4 0 0 0 0 0 0 3 10 34 50 46 6 83
86 100 100 100 100 100 100 100 100 100 100 100 100 100 100 100 100 100 100 100 45 100 100 100 100 100 100 100 100 20 5 0 0 0 0 0 0 0 2 3 8 93 61 33

GFSCGP_prec_cloud_045.txt.gz
Cloud_Cover
100 85 50 100 100 100 16 5 7 86 100 99 6 4 4 2 4 1 5 24 73 96 40 6 85 5 0 0 0 0 24 5 23 5 11 19 2 12 5 100 0 0 5 1
0 1 81 100 100 70 71 8 3 4 71 62 68 0 5 1 4 4 90 91 29 51 16 100 72 3 0 2 2 4 22 88 9 3 8 0 0 2 82 8 0 5 6 100
0 0 0 13 49 59 63 5 87 23 13 3 2 0 0 4 5 39 84 100 100 44 42 43 2 0 5 5 5 5 56 16 6 4 0 0 0 37 19 0 25 4 29 79
0 4 0 0 0 4 51 15 88 81 100 4 1 0 0 0 0 5 99 100 93 19 49 5 6 5 37 5 1 4 19 6 59 4 0 0 5 4 2 5 0 0 0 0
0 1 1 0 0 0 0 90 21 5 5 5 0 0 5 5 0 6 100 99 5 0 0 0 5 66 5 1 4 22 12 5 89 0 2 5 5 5 2 0 0 0 0 0
0 0 20 5 0 0 0 0 0 0 0 0 3 0 0 0 22 6 54 0 0 3 4 0 1 0 0 0 27 16 5 3 5 0 5 5 5 1 0 0 1 1 0 3
4 2 0 5 4 0 0 0 0 0 0 0 0 0 0 0 0 1 0 0 0 0 0 0 0 0 0 6 28 10 4 2 0 5 5 5 0 0 0 0 0 0 1 3
91 4 0 3 47 6 3 0 0 0 0 0 0 0 0 0 0 0 0 0 0 0 0 0 0 0 0 19 9 5 0 0 0 5 0 0 0 0 0 0 0 0 0 0
100 100 100 40 83 100 48 1 0 0 0 0 0 0 0 0 0 0 0 0 0 0 0 0 0 1 20 30 5 5 2 4 5 5 2 2 0 0 0 0 0 0 0 1
100 84 100 99 98 98 100 86 2 0 0 0 0 0 0 0 0 0 0 0 0 0 0 0 6 34 22 2 8 0 2 5 14 98 17 1 0 0 0 0 0 0 0 3
86 82 92 90 30 27 100 100 11 0 0 0 0 0 0 0 14 2 0 0 0 0 0 1 49 27 6 2 0 1 49 10 5 0 0 0 0 0 0 0 0 0 1 32
41 40 96 9 5 5 5 100 85 5 0 0 0 0 0 0 4 0 2 0 0 0 0 33 26 18 15 2 70 9 93 2 5 0 0 0 0 0 0 0 0 0 0 5
58 53 5 98 9 8 1 3 49 5 0 0 0 0 0 1 2 0 4 0 0 0 0 12 16 14 4 7 27 5 2 5 0 0 0 0 0 0 0 0 0 14 3 5
68 73 76 5 5 45 5 9 75 15 0 0 0 0 0 17 28 0 0 0 0 0 1 7 0 0 0 100 47 5 30 14 0 0 0 0 0 0 0 0 0 6 3 24
100 100 59 45 39 28 5 5 79 100 9 3 0 0 0 17 0 4 3 0 0 0 0 0 0 0 3 100 93 10 26 26 3 0 0 0 0 0 0 0 0 2 4 4
97 99 10 100 21 53 14 6 5 91 6 5 0 0 0 20 32 5 3 0 0 0 0 0 0 0 1 45 100 15 13 9 5 0 0 0 0 0 0 0 0 5 14 56
99 96 72 86 100 100 69 4 5 2 2 0 0 0 22 76 58 6 5 0 0 0 0 0 0 0 1 89 38 82 12 5 0 0 0 0 33 0 0 0 2 5 51 45
100 100 99 100 100 87 12 0 2 1 0 1 3 0 95 88 83 25 5 0 0 0 3 0 0 0 5 88 93 5 7 0 0 0 0 4 15 0 0 3 5 5 13 30
100 100 100 100 100 100 93 76 100 98 1 6 79 64 100 32 100 6 3 0 3 5 50 0 0 0 2 100 90 5 5 2 0 0 0 0 0 2 4 1 2 5 5 73
97 61 100 100 100 100 100 100 100 100 93 84 100 100 100 0 0 0 0 0 6 5 4 2 2 0 5 100 91 5 2 3 0 0 0 0 0 7 14 1 12 8 71 97
100 100 100 100 100 100 100 100 100 100 53 100 100 91 35 0 0 0 0 12 86 5 10 29 14 0 10 100 25 5 30 0 0 0 0 0 0 5 4 6 5 29 99 86
100 100 100 100 100 100 100 100 100 100 100 100 100 100 100 36 0 2 30 99 98 100 100 33 30 11 60 100 52 4 2 0 0 0 0 0 0 0 6 9 38 43 58 86
100 100 100 100 100 100 100 100 100 100 100 100 100 100 100 56 0 100 100 100 100 100 100 72 98 9 5 100 22 100 15 0 0 0 0 0 0 8 16 31 100 99 43 91
100 100 100 100 100 100 100 100 100 100 100 100 100 100 100 95 100 100 100 100 100 100 100 68 17 14 87 98 99 100 98 0 0 0 0 0 0 27 34 46 100 100 100 100
100 100 100 100 100 100 100 100 100 100 100 100 100 100 100 100 100 100 100 96 98 100 100 65 41 68 100 100 100 100 99 0 0 0 0 0 5 16 55 79 100 100 75 95
100 100 100 100 100 100 100 100 100 100 100 100 100 100 100 100 100 100 100 100 100 100 100 100 100 100 100 100 100 100 6 0 0 0 0 0 8 26 56 100 100 100 96 100

GFSCGP_prec_cloud_048.txt.gz
Cloud_Cover
0 0 0 0 4 100 100 100 94 12 38 100 30 2 13 70 53 7 5 87 100 100 100 100 100 90 38 10 5 0 0 0 7 10 23 97 32 100 68 22 4 36 66 25
0 0 0 0 0 8 43 32 92 93 34 8 20 0 0 0 5 5 5 24 100 100 100 94 24 6 3 5 3 0 0 0 1 4 24 12 25 31 7 17 35 76 23 6
2 0 0 0 0 4 5 6 90 100 100 5 0 0 0 0 0 0 52 100 100 78 56 15 4 5 4 5 2 4 0 0 10 5 4 10 5 0 0 16 75 8 5 0
13 0 1 0 4 1 0 2 66 100 100 97 52 0 0 40 0 0 29 100 98 10 42 6 5 5 97 34 44 0 2 22 2 2 1 4 0 0 5 5 4 4 0 32
2 0 4 88 1 0 0 0 0 3 83 91 11 2 1 30 2 59 97 6 1 3 0 1 6 18 5 5 4 5 19 24 2 0 5 5 0 5 4 0 0 4 0 0
3 5 1 0 0 1 2 0 0 0 0 0 12 4 56 100 93 100 4 5 5 0 0 2 17 5 0 0 12 37 26 28 0 5 4 2 0 0 0 0 2 2 6 2
16 37 38 5 1 5 5 3 0 0 0 0 1 0 87 100 82 100 76 73 93 49 3 8 0 0 0 5 55 46 11 24 3 0 0 0 0 0 0 0 8 13 14 0
20 5 5 0 0 4 5 19 0 0 0 0 0 0 0 100 100 100 100 100 5 2 2 0 0 0 0 37 52 30 7 7 0 0 0 0 4 45 2 0 5 1 0 0
100 99 83 0 0 0 5 79 78 1 0 0 0 0 0 0 0 44 97 71 0 0 0 0 0 0 33 53 39 19 0 2 0 0 2 17 57 3 0 0 0 0 0 0
100 100 100 100 25 1 2 48 100 30 0 0 0 0 0 0 0 0 0 0 0 0 0 0 0 54 72 39 18 8 0 0 0 2 5 17 0 0 0 0 0 0 0 0
100 100 100 99 100 89 41 5 37 61 3 0 0 0 0 0 0 0 0 0 0 0 0 26 99 100 72 36 7 0 0 0 1 0 0 0 0 0 0 0 0 0 0 0
100 100 100 100 72 17 7 5 11 9 5 0 0 0 0 0 0 0 0 0 0 0 8 100 100 100 96 48 7 0 0 0 3 0 0 0 0 0 0 0 0 0 0 4
100 100 100 100 97 17 2 0 0 0 3 0 0 0 0 0 0 57 0 0 0 0 65 100 100 100 100 39 0 0 4 8 0 0 2 0 0 0 0 0 0 0 4 1
64 68 30 75 28 4 2 4 5 16 6 0 0 0 0 0 0 62 0 0 0 0 36 100 100 100 70 10 0 5 4 0 5 5 4 0 0 0 0 0 0 0 1 1
48 100 92 49 8 5 5 5 4 50 9 80 0 0 0 0 7 4 0 0 0 0 13 42 94 65 45 14 0 5 6 5 5 4 0 0 0 0 0 0 0 0 2 5
78 100 100 100 100 16 5 5 5 5 5 5 5 5 0 0 64 0 5 4 0 0 0 5 24 4 21 2 0 4 5 5 3 0 0 0 0 0 0 0 0 5 5 44
100 85 81 20 3 27 53 5 2 0 0 0 1 0 5 27 90 0 0 2 0 0 0 0 1 0 0 0 0 99 5 5 3 0 0 0 0 0 0 0 1 5 5 15
100 86 100 100 98 99 85 23 6 4 2 0 0 0 27 80 72 0 1 3 0 0 0 0 0 0 0 0 0 41 5 1 0 0 0 0 0 0 0 0 1 8 7 5
100 100 100 100 100 100 100 100 100 100 30 8 5 2 3 100 25 1 19 4 0 0 0 0 0 0 0 0 0 5 5 3 0 0 0 0 0 0 0 0 7 5 10 22
100 100 100 100 100 100 100 100 100 100 100 92 84 35 22 100 100 44 100 0 0 0 2 0 0 0 0 0 0 5 5 2 5 3 0 0 0 0 2 0 8 5 10 19
100 100 100 100 100 100 100 100 100 100 86 100 100 100 100 100 80 13 8 0 0 5 5 0 0 0 0 0 0 14 2 0 1 0 0 0 0 0 0 2 8 18 88 100
100 100 100 100 100 100 100 100 100 100 100 100 100 100 100 99 94 4 4 0 1 10 5 0 0 0 0 0 0 5 4 19 2 0 0 0 0 0 0 2 39 47 76 99
100 100 100 100 100 100 100 100 100 100 100 100 100 100 100 70 21 0 0 0 39 10 0 0 0 0 0 0 0 5 66 100 34 0 0 0 0 0 0 63 100 100 100 100
100 100 100 100 100 100 100 100 100 100 100 100 95 88 60 100 95 6 1 20 71 5 76 13 47 1 0 4 2 15 94 99 71 0 0 0 1 38 42 94 100 100 98 96
100 100 100 100 100 100 100 100 100 100 100 100 100 100 100 100 100 17 5 1 54 100 100 100 100 97 46 4 31 5 34 100 2 0 0 0 40 44 100 100 100 100 100 100
100 100 100 100 100 100 100 100 100 100 100 100 84 68 72 98 100 45 2 100 100 100 100 100 100 100 96 100 100 100 100 20 0 0 0 2 9 61 100 100 100 100 100 100